Weather reports worldwide

Advertisment
List/Sylt, Germany (10020): temperature & dewpoint: 10.12.2019 13:00:00 - 16.12.2019 13:00:00 (CET)List/Sylt, Germany (10020): temperature 5cm & temperature -5cm: 10.12.2019 13:00:00 - 16.12.2019 13:00:00 (CET)List/Sylt, Germany (10020): temperature -20cm: 10.12.2019 13:00:00 - 16.12.2019 13:00:00 (CET)List/Sylt, Germany (10020): wind speed & gusts: 10.12.2019 13:00:00 - 16.12.2019 13:00:00 (CET)List/Sylt, Germany (10020): wind direction: 10.12.2019 13:00:00 - 16.12.2019 13:00:00 (CET)List/Sylt, Germany (10020): reduced air pressure: 10.12.2019 13:00:00 - 16.12.2019 13:00:00 (CET)List/Sylt, Germany (10020): visibility: 10.12.2019 13:00:00 - 16.12.2019 13:00:00 (CET)List/Sylt, Germany (10020): sunshine duration: 10.12.2019 13:00:00 - 16.12.2019 13:00:00 (CET)List/Sylt, Germany (10020): precipitation: 10.12.2019 13:00:00 - 16.12.2019 13:00:00 (CET)
Date & Time tt [°C] td [°C] tt 5cm [°C] tt -5cm [°C] tt -20cm [°C] ff [km/h] ff [kn] fx [km/h] fx [kn] dd ppp [hPa] vv [km] sd [min] rr [mm]
16.12.2019 13:00:00 6,8 4,9 6,8 5,0 4,9 37 20 54 29 SSW 1001,5 14 0 0,0
16.12.2019 12:00:00 6,5 4,4 6,4 4,9 4,8 41 22 59 32 SSW 1001,5 16 0 0,0
16.12.2019 11:00:00 6,1 4,0 5,5 4,7 4,8 40 22 58 31 SSW 1001,4 16 0 0,0
16.12.2019 10:00:00 5,9 3,9 5,2 4,5 4,8 40 21 53 29 SSW 1001,4 16 0 0,0
16.12.2019 09:00:00 5,7 3,4 5,0 4,5 4,8 41 22 56 31 SSW 1000,7 17 0 0,0
16.12.2019 08:00:00 5,6 3,2 4,7 4,4 4,8 40 22 54 29 S 1000,6 18 0 0,0
16.12.2019 07:00:00 5,6 3,6 4,6 4,4 4,8 42 23 52 28 S 1000,7 17 0 0,0
16.12.2019 06:00:00 5,8 3,9 4,6 4,5 4,8 36 19 46 25 S 1000,9 14 0 0,0
16.12.2019 05:00:00 6,4 4,5 5,3 4,5 4,7 32 18 44 24 SSW 1001,4 14 0 0,0
16.12.2019 04:00:00 6,8 4,8 5,6 4,4 4,7 33 18 49 26 SW 1001,6 13 0 0,0
16.12.2019 03:00:00 6,7 4,8 5,3 4,2 4,7 34 18 45 24 SW 1001,4 14 0 0,0
16.12.2019 02:00:00 6,6 3,6 4,5 4,2 4,7 23 13 35 19 SW 1001,1 20 0 0,0
16.12.2019 01:00:00 6,5 3,8 4,5 4,2 4,7 23 12 45 24 SW 1000,8 21 0 0,0
16.12.2019 00:00:00 6,4 3,0 4,5 4,2 4,8 30 16 50 27 WSW 1000,1 31 0 0,1
15.12.2019 23:00:00 7,0 2,0 5,7 4,2 4,8 31 17 50 27 WSW 999,4 27 0 0,0
15.12.2019 22:00:00 6,7 2,5 5,0 4,3 4,8 37 20 61 33 WSW 998,7 23 0 0,0
15.12.2019 21:00:00 6,8 1,6 5,1 4,3 4,9 38 20 58 31 WSW 997,5 26 0 0,0
15.12.2019 20:00:00 6,6 2,4 4,8 4,4 4,9 41 22 60 32 WSW 996,3 23 0 0,0
15.12.2019 19:00:00 6,5 1,7 4,5 4,5 4,9 49 27 68 37 WSW 995,0 26 0 0,0
15.12.2019 18:00:00 6,7 2,0 4,8 4,6 5,0 45 24 78 42 W 993,9 23 0 0,0
15.12.2019 17:00:00 6,9 1,4 4,7 4,8 4,9 52 28 81 44 W 992,1 22 0 0,0
15.12.2019 16:00:00 6,8 2,9 5,3 4,9 4,9 63 34 103 56 W 990,0 17 0 0,3
15.12.2019 15:00:00 6,1 3,2 4,9 4,9 4,9 63 34 112 61 W 987,7 9 0 0,5
15.12.2019 14:00:00 6,3 3,5 5,3 4,8 4,8 71 38 102 55 WSW 984,4 11 4 0,0
15.12.2019 13:00:00 5,9 3,0 5,1 4,7 4,8 57 31 104 56 SW 983,9 15 10 0,1
15.12.2019 12:00:00 6,8 1,9 5,5 4,6 4,7 59 32 87 47 WSW 983,5 19 3 0,0
15.12.2019 11:00:00 6,7 2,9 5,3 4,6 4,7 49 26 89 48 WSW 983,0 16 3 0,0
15.12.2019 10:00:00 7,0 3,9 5,5 4,5 4,7 50 27 89 48 SW 981,9 19 0 0,6
15.12.2019 09:00:00 5,5 4,3 5,0 4,3 4,7 59 32 78 42 S 981,2 3,2 0 1,2
15.12.2019 08:00:00 4,2 2,7 3,7 4,3 4,7 54 29 69 37 SSE 982,9 10 0 0,9
15.12.2019 07:00:00 4,2 2,5 3,7 4,3 4,6 43 23 62 33 SSE 984,8 8 0 0,0
15.12.2019 06:00:00 5,1 2,6 4,5 4,3 4,6 41 22 53 29 SSE 986,7 15 0 0,0
15.12.2019 05:00:00 5,6 2,9 5,1 4,2 4,6 36 20 49 26 S 988,3 15 0 0,0
15.12.2019 04:00:00 6,5 1,6 5,4 4,1 4,6 28 15 51 27 SW 989,3 17 0 0,0
15.12.2019 03:00:00 6,6 1,1 5,5 4,1 4,7 37 20 61 33 SW 990,1 21 0 0,0
15.12.2019 02:00:00 6,5 0,7 4,6 4,2 4,7 38 20 63 34 WSW 989,8 23 0 0,0
15.12.2019 01:00:00 7,0 0,4 5,1 4,2 4,7 47 26 68 37 WSW 989,1 25 0 0,0
15.12.2019 00:00:00 6,4 0,8 4,1 4,3 4,7 52 28 72 39 WSW 988,2 29 0 0,0
14.12.2019 23:00:00 6,5 2,3 4,7 4,4 4,7 46 25 68 37 WSW 987,4 20 0 0,1
14.12.2019 22:00:00 5,7 2,3 4,3 4,4 4,8 35 19 66 35 W 986,3 21 0 0,1
14.12.2019 21:00:00 6,4 2,5 4,6 4,4 4,8 42 23 66 35 WSW 985,1 20 0 0,0
14.12.2019 20:00:00 5,0 2,4 4,0 4,5 4,8 48 26 68 37 W 984,2 18 0 0,0
14.12.2019 19:00:00 6,6 1,5 4,5 4,5 4,8 50 27 74 40 W 982,8 30 0 0,0
14.12.2019 18:00:00 6,6 2,7 4,8 4,6 4,7 46 25 80 43 WSW 981,8 23 0 0,1
14.12.2019 17:00:00 6,1 3,3 4,7 4,7 4,7 40 22 75 41 W 981,0 19 0 0,9
14.12.2019 16:00:00 5,6 3,9 5,0 4,7 4,7 41 22 80 43 WSW 980,1 3,9 0 0,4
14.12.2019 15:00:00 5,7 2,8 4,7 4,7 4,6 55 30 75 40 WSW 978,8 29 0 0,1
14.12.2019 14:00:00 5,4 2,9 4,7 4,8 4,5 42 23 65 35 WSW 978,4 29 1 0,0
14.12.2019 13:00:00 6,4 3,7 5,7 4,5 4,4 38 20 59 32 SW 977,9 25 22 0,0
14.12.2019 12:00:00 5,7 3,1 4,7 4,3 4,3 41 22 64 35 WSW 977,5 16 0 0,6
14.12.2019 11:00:00 5,3 3,3 4,7 4,2 4,2 34 18 51 28 WSW 977,1 15 0 0,5
14.12.2019 10:00:00 5,0 3,5 4,4 4,1 4,2 32 18 45 25 SSW 976,8 13 0 1,2
14.12.2019 09:00:00 4,9 3,2 4,2 4,0 4,1 36 20 49 26 SW 976,6 8 0 2,2
14.12.2019 08:00:00 5,1 4,2 4,8 3,8 4,0 32 17 42 23 SSW 976,2 4,7 0 0,6
14.12.2019 07:00:00 5,3 4,2 4,8 3,7 3,9 30 16 44 24 SSW 976,4 15 0 0,7
14.12.2019 06:00:00 4,6 4,0 4,2 3,5 3,9 29 15 47 26 SSE 976,6 3,7 0 0,3
14.12.2019 05:00:00 3,2 2,5 3,1 3,3 3,9 33 18 47 26 SE 977,0 1,7 0 0,3
14.12.2019 04:00:00 2,8 2,0 2,7 3,2 3,9 34 18 46 25 SE 977,7 2,0 0 0,0
14.12.2019 03:00:00 2,3 1,5 2,2 3,1 3,9 29 15 39 21 SE 978,6 2,8 0 0,0
14.12.2019 02:00:00 2,1 1,1 1,9 3,1 3,9 30 16 42 23 SE 979,2 3,3 0 0,1
14.12.2019 01:00:00 1,7 0,6 1,6 3,1 3,9 27 14 39 21 SE 979,7 4,3 0 0,0
14.12.2019 00:00:00 1,6 0,4 1,3 3,0 3,9 29 15 38 20 SE 980,3 4,2 0 0,0
13.12.2019 23:00:00 1,6 0,2 1,3 3,0 3,9 27 15 38 21 SE 980,8 8 0 0,0
13.12.2019 22:00:00 1,5 0,2 1,2 3,0 3,9 26 14 39 21 SE 981,1 5 0 0,0
13.12.2019 21:00:00 1,9 0,1 1,5 3,0 3,9 25 14 38 20 SE 981,3 7 0 0,0
13.12.2019 20:00:00 1,9 -0,1 1,5 3,0 3,9 24 13 36 20 SE 981,4 11 0 0,0
13.12.2019 19:00:00 2,2 -0,4 2,0 2,9 3,9 27 15 39 21 SE 981,2 17 0 0,0
13.12.2019 18:00:00 2,4 -0,4 2,0 2,8 3,9 27 15 39 21 ESE 981,1 20 0 0,0
13.12.2019 17:00:00 2,3 -0,6 0,7 2,8 4,0 24 13 35 19 SE 980,8 21 0 0,0
13.12.2019 16:00:00 2,5 -0,5 1,4 3,0 4,0 27 15 41 22 SE 980,5 21 0 0,0
13.12.2019 15:00:00 2,6 -0,6 2,0 3,0 4,0 27 15 45 25 ESE 980,0 22 0 0,0
13.12.2019 14:00:00 2,3 -0,8 1,6 3,0 4,0 31 17 47 25 ESE 979,8 23 17 0,0
13.12.2019 13:00:00 2,4 -0,8 2,5 3,0 4,0 33 18 47 26 ESE 980,0 23 60 0,0
13.12.2019 12:00:00 2,4 -0,4 2,9 2,8 4,1 36 20 51 27 ESE 980,1 23 23 0,0
13.12.2019 11:00:00 1,7 -0,9 1,3 2,8 4,1 38 21 52 28 ESE 980,0 21 60 0,0
13.12.2019 10:00:00 1,7 -0,9 1,1 2,8 4,2 36 19 52 28 ESE 980,2 22 13 0,0
13.12.2019 09:00:00 1,7 -1,1 0,6 2,9 4,3 36 19 58 32 ESE 980,0 26 0 0,0
13.12.2019 08:00:00 2,0 -1,0 0,7 3,0 4,4 41 22 58 32 SE 980,2 31 0 0,0
13.12.2019 07:00:00 2,1 -0,7 0,9 3,1 4,4 44 24 63 34 SE 980,5 25 0 0,0
13.12.2019 06:00:00 2,3 -0,4 1,0 3,2 4,5 45 24 67 36 SE 981,0 28 0 0,0
13.12.2019 05:00:00 2,4 -0,2 1,2 3,3 4,6 46 25 68 37 SE 981,6 24 0 0,0
13.12.2019 04:00:00 2,5 0,2 1,4 3,4 4,7 47 26 69 37 SE 982,5 20 0 0,0
13.12.2019 03:00:00 2,4 0,1 1,4 3,5 4,8 46 25 63 34 SE 983,9 18 0 0,0
13.12.2019 02:00:00 2,5 0,2 1,4 3,6 4,9 42 23 59 32 SE 985,1 15 0 0,0
13.12.2019 01:00:00 2,6 0,6 1,5 3,8 5,0 41 22 61 33 SE 986,3 11 0 0,0
13.12.2019 00:00:00 2,7 0,9 1,6 3,9 5,1 41 22 55 30 SE 987,7 7 0 0,0
12.12.2019 23:00:00 2,9 1,3 1,6 4,1 5,1 33 18 55 30 SSE 989,1 7 0 0,0
12.12.2019 22:00:00 3,6 1,3 2,3 4,2 5,2 40 21 51 28 SSE 990,1 13 0 0,0
12.12.2019 21:00:00 4,2 1,4 2,7 4,3 5,3 39 21 51 28 SSE 991,0 19 0 0,0
12.12.2019 20:00:00 4,6 1,0 2,8 4,5 5,4 32 18 46 25 S 992,1 32 0 0,0
12.12.2019 19:00:00 5,0 2,0 3,2 4,6 5,4 33 18 42 23 S 992,8 27 0 0,0
12.12.2019 18:00:00 5,2 2,1 3,2 4,8 5,5 31 17 40 21 SSW 993,5 33 0 0,0
12.12.2019 17:00:00 5,0 2,0 3,5 5,0 5,5 18 10 46 25 SSW 994,2 42 0 0,1
12.12.2019 16:00:00 5,7 1,8 4,3 5,1 5,5 26 14 40 22 SSW 994,2 42 0 0,0
12.12.2019 15:00:00 6,4 1,5 4,4 5,4 5,5 24 13 35 19 SW 994,5 35 47 0,0
12.12.2019 14:00:00 6,3 1,0 4,7 5,4 5,5 19 10 41 22 SW 994,9 53 23 0,0
12.12.2019 13:00:00 5,9 2,9 5,5 5,4 5,4 18 10 36 20 SSW 995,5 52 5 0,1
12.12.2019 12:00:00 6,1 3,7 6,3 5,1 5,3 22 12 36 20 SW 995,8 33 0 0,0
12.12.2019 11:00:00 5,5 3,4 4,6 5,0 5,3 24 13 46 25 SSW 996,2 54 0 0,3
12.12.2019 10:00:00 5,8 4,3 5,2 4,9 5,3 32 17 41 22 SSW 996,4 8 0 0,0
12.12.2019 09:00:00 5,5 3,9 4,8 4,8 5,3 31 17 41 22 S 996,8 8 0 0,0
12.12.2019 08:00:00 5,1 3,5 4,4 4,7 5,3 32 17 39 21 SSE 997,0 9 0 0,0
12.12.2019 07:00:00 5,3 3,0 4,2 4,5 5,3 25 14 37 20 S 997,6 15 0 0,0
12.12.2019 06:00:00 5,3 2,9 3,5 4,4 5,3 29 16 38 21 S 997,9 14 0 0,0
12.12.2019 05:00:00 5,2 3,0 3,4 4,5 5,4 25 13 33 18 SSW 998,2 15 0 0,0
12.12.2019 04:00:00 5,4 3,9 3,7 4,6 5,5 23 12 29 15 SSW 998,7 11 0 0,0
12.12.2019 03:00:00 5,6 4,2 4,0 4,7 5,5 17 9 25 13 SSW 999,5 9 0 0,0
12.12.2019 02:00:00 5,7 4,6 4,3 4,8 5,5 16 9 21 12 S 999,7 7 0 0,0
12.12.2019 01:00:00 5,6 4,4 4,3 4,8 5,6 18 10 26 14 S 1000,3 11 0 0,0
12.12.2019 00:00:00 5,5 4,2 4,1 4,8 5,6 16 9 25 13 S 1000,9 14 0 0,0
11.12.2019 23:00:00 5,5 4,5 4,2 4,9 5,7 17 9 26 14 S 1001,2 8 0 0,0
11.12.2019 22:00:00 5,4 4,5 4,2 5,0 5,8 21 12 27 15 S 1001,6 6 0 0,0
11.12.2019 21:00:00 5,5 4,6 4,0 5,1 5,8 17 9 27 15 S 1001,9 8 0 0,0
11.12.2019 20:00:00 5,6 4,7 4,2 5,3 5,9 21 12 28 15 S 1002,3 9 0 0,0
11.12.2019 19:00:00 5,8 4,6 4,6 5,4 5,9 22 12 28 15 S 1002,5 14 0 0,0
11.12.2019 18:00:00 5,9 4,7 4,8 5,5 6,0 21 12 27 15 SSW 1002,6 15 0 0,0
11.12.2019 17:00:00 6,2 4,9 5,1 5,7 6,0 21 11 31 17 SSW 1002,8 16 0 0,0
11.12.2019 16:00:00 6,7 5,1 6,0 5,8 5,9 23 12 31 17 SSW 1002,9 17 0 0,0
11.12.2019 15:00:00 6,9 5,0 6,0 5,8 5,9 20 11 28 15 SSW 1003,1 18 0 0,0
11.12.2019 14:00:00 7,2 3,8 6,0 5,8 5,9 20 11 28 15 SSW 1003,4 23 5 0,0
11.12.2019 13:00:00 7,3 5,0 6,7 5,7 5,8 18 10 27 14 SSW 1003,7 20 19 0,0
11.12.2019 12:00:00 6,8 5,2 5,9 5,7 5,8 15 8 28 15 SSW 1004,2 16 12 0,0
11.12.2019 11:00:00 7,5 4,3 6,2 5,6 5,8 20 11 27 15 SW 1004,6 21 0 0,0
11.12.2019 10:00:00 7,0 4,5 5,5 5,5 5,8 16 9 25 13 SW 1004,4 17 0 0,0
11.12.2019 09:00:00 7,1 4,5 5,6 5,5 5,8 19 10 27 15 SW 1004,3 16 0 0,0
11.12.2019 08:00:00 7,0 5,5 5,9 5,7 5,8 19 11 45 24 SW 1003,8 14 0 0,0
11.12.2019 07:00:00 7,3 5,6 6,5 5,6 5,7 31 17 48 26 SSW 1003,3 15 0 0,0
11.12.2019 06:00:00 6,9 5,5 6,2 5,6 5,7 37 20 69 37 SSW 1002,6 18 0 0,0
11.12.2019 05:00:00 6,8 5,4 6,2 5,5 5,6 53 29 79 42 SW 1002,0 10 0 0,1
11.12.2019 04:00:00 6,7 4,2 6,0 5,4 5,6 53 28 80 43 SSW 1002,0 12 0 0,0
11.12.2019 03:00:00 6,6 3,7 5,7 5,3 5,6 60 32 85 46 SSW 1002,0 17 0 0,0
11.12.2019 02:00:00 6,5 3,1 5,3 5,2 5,6 58 31 86 47 SSW 1002,4 18 0 0,0
11.12.2019 01:00:00 6,2 2,8 5,1 5,1 5,6 55 30 84 45 SSW 1003,4 10 0 0,0
11.12.2019 00:00:00 5,9 2,2 4,6 5,1 5,6 61 33 85 46 SSW 1004,6 20 0 0,0
10.12.2019 23:00:00 5,8 1,9 4,5 5,0 5,6 60 33 85 46 S 1005,2 15 0 0,0
10.12.2019 22:00:00 5,2 2,1 4,2 5,0 5,6 57 31 84 45 S 1006,0 17 0 0,1
10.12.2019 21:00:00 5,0 2,0 3,9 5,0 5,6 58 32 81 44 S 1007,2 10 0 0,0
10.12.2019 20:00:00 5,2 1,5 4,8 5,0 5,6 53 29 77 42 S 1009,1 22 0 0,0
10.12.2019 19:00:00 5,5 1,0 4,8 5,0 5,7 52 28 73 40 S 1010,2 25 0 0,0
10.12.2019 18:00:00 5,5 1,5 4,8 5,1 5,7 49 26 67 36 S 1011,7 26 0 0,0
10.12.2019 17:00:00 5,8 1,5 4,8 5,2 5,7 48 26 64 34 S 1012,9 26 0 0,0
10.12.2019 16:00:00 6,1 2,4 5,0 5,4 5,7 41 22 56 31 S 1014,6 25 0 0,0
10.12.2019 15:00:00 6,6 2,4 5,9 5,4 5,6 41 22 55 30 SSW 1015,7 26 4 0,0
10.12.2019 14:00:00 7,0 0,7 6,6 5,4 5,6 36 20 49 27 SSW 1016,7 30 0 0,0
10.12.2019 13:00:00 7,2 -0,4 6,8 5,3 5,5 31 17 41 22 SSW 1017,7 36 10 0,0

tt = temperature
td = dewpoint
tt 5cm = temperature 5cm
tt -5cm = temperature -5cm
tt -20cm = temperature -20cm
ff = wind speed
fx = gusts
dd = wind direction
ppp = reduced air pressure
vv = visibility
sd = sunshine duration
rr = precipitation

Next stations